Showing default

LEMUR-2 CLARA, 68483

Orbit data source: Space-Track

LEMUR-2 CLARA, 68483 is a Luxembourger payload satellite in SSO that was launched on Mon, 30 Mar 2026 UTC via an FALCON 9 launch vehicle from the Air Force Western Test Range (AFWTR). Payload-class satellites include a variety of spacecraft equipped with specific instruments for various scientific and technological missions. These include communications satellites like Starlink; space stations such as the ISS; scientific satellites like the Hubble; Earth observation satellites from companies like Planet Labs, Umbra, and HawkEye 360; GPS; miniature CubeSats for education and research; and military/defense satellites.

Loading next visibility...
Identifier
68483, 2026-067BV
Orbit
SSO
Country
Flag of LULU / LUXE
Related business
None
Manufacturer
Unknown
Mission
Operational spacecraft
Bus & Motor
Unknown
Mass
Unknown
Launch date (UTC)
2026-03-30 (1 month ago)
Launch vehicle
FALCON 9
Launch site
Air Force Western Test Range (AFWTR)
Object type
Payload
Rocket body
Debris
Shape & HBR
Unknown shape, 1.1 m
Radar Cross Section
RCS unknown

Expand to show TLE details & history
Last TLE update: 15 hours ago

TLE from 15 hours ago
0 LEMUR-2 CLARA
1 68483U 26067BV  26127.11668333  .00003876  00000-0  38358-3 0  9993
2 68483  97.7627  86.0663 0005012  73.1037 287.0732 14.92431959  5604
Epoch: 2026-05-07T02:48Z
TLE epoch observation values (Epoch: 2026-05-07T02:48:01.439Z)
Latitude
0.00003°
Longitude
179.09286°
Altitude
592.374 km
Speed
7.564 km/s
True Right ascension
05h 44m 15s
True Declination
0° 00' 00"
Sunlit
Object was in daylight at epoch
Visualization orbit readout
Latitude
Unknown
Longitude
Unknown
Altitude
Unknown
Speed
Unknown
Apparent Right ascension
Unknown
Apparent Declination
Unknown
Sunlit
N/A
Visualization observer readout
Local Sidereal Time
01:58:16
Azimuth
Unknown
Elevation
Unknown
Doppler factor
Unknown
Orbital elements
Apogee altitude
590.864 km
Perigee altitude
583.882 km
Semi-major axis
6,965.51 km
Eccentricity
0.0005
Inclination
97.7627°
RAAN
86.0663°
Arg. of periapsis
73.1037°
True anomaly
287.01829°
Mean anomaly
287.0732°
Eccentric anomaly
287.04574°
Mean motion
3.73348 °/min
Orbital period
96.42 mins
BSTAR
0.00038358
Loading maneuver chart data...
Computing Atmospheric mass density...
Loading historical data...
Loading historical data...
Loading historical data...
Loading historical data...
Loading historical data...
Loading historical data...
Loading historical data...

Documentation

Showing up to 5 results
|